Regional Weather Roundup
Issued by NWS

Home | Current Version | Previous Version | Graphics & Text | Print | Product List | Glossary On
Versions: 1 2 3 4 5 6 7 8 9 10 11 12 13 14 15 16 17 18 19 20 21 22 23 24 25 26 27 28 29 30 31 32 33 34 35 36 37 38 39 40 41 42 43 44 45 46 47 48 49 50
000
ASUS43 KMPX 230201
RWRMN
WEATHER ROUNDUP FOR MINNESOTA
NATIONAL WEATHER SERVICE TWIN CITIES/CHANHASSEN MN
800 PM CST MON DEC 22 2014


NOTE: "FAIR" INDICATES FEW OR NO CLOUDS BELOW 12,000 FEET WITH NO
SIGNIFICANT WEATHER AND/OR OBSTRUCTIONS TO VISIBILITY. N/A MEANS
CURRENT SKY AND/OR WEATHER CONDITIONS ARE NOT AVAILABLE.

MNZ060>063-068>070-230300-
   Twin Cities Metro

CITY           SKY/WX    TMP DP  RH WIND       PRES   REMARKS
TWIN CITIES    LGT RAIN  37  34  89 E12       29.61R FOG
ST PAUL        LGT RAIN  37  34  89 E10       29.63R
CRYSTAL        LGT RAIN  38  35  89 E7        29.61R FOG
BLAINE         DRIZZLE   37  37 100 E90       29.62S
LAKEVILLE      DRIZZLE   34  34 100 E8        29.59S WCI  27
EDEN PRAIRIE   LGT RAIN  37  34  89 E10       29.59S FOG
SOUTH ST PAUL  CLOUDY    37  35  92 E8        29.61S FOG
LAKE ELMO      CLOUDY    36  34  93 E8        29.63S
$$
MNZ001>005-007-008-013>017-022>024-027-028-230300-
   Northwest Minnesota

CITY           SKY/WX    TMP DP  RH WIND       PRES   REMARKS
BEMIDJI        DRIZZLE   33  32  96 E5        29.67R WCI  28
HALLOCK        LGT RAIN  36  34  93 NE6       29.72R
ROSEAU         LGT RAIN  34  30  86 E6        29.72R WCI  29
WARROAD        CLOUDY    34  28  80 NE7       29.73R FOG     WCI  28
THIEF RVR FALL CLOUDY    36  34  93 NE7       29.68S
CROOKSTON      CLOUDY    36  36 100 E6        29.69R FOG
FOSSTON        CLOUDY    34  32  93 E3        29.67R
DETROIT LAKES  LGT RAIN  34  32  93 E6        29.64R WCI  29
MOORHEAD       DRIZZLE   37  37 100 E7        29.64R
PARK RAPIDS    CLOUDY    34  32  92 E7        29.64R FOG     WCI  28
MAHNOMEN       CLOUDY    33  32  94 E7        29.64R WCI  27
$$
MNZ006-009>011-018-025>026-230300-
   North Central Minnesota

CITY           SKY/WX    TMP DP  RH WIND       PRES   REMARKS
BAUDETTE       CLOUDY    34  32  92 E7        29.72R WCI  28
FLAG ISLAND    DRIZZLE   34  32  93 E6        29.73R WCI  29
INTL FALLS     LGT SNOW  33  32  96 E5        29.73R FOG     WCI  29
WASKISH        LGT RAIN  34  34 100 CALM      29.71R
BIG FORK       LGT SNOW  34  32  93 E3        29.71R
LONGVILLE      MIX PCPN  34  32  93 E3        29.67R
GRAND RAPIDS   CLOUDY    34  32  93 SE6       29.69R WCI  29
CRANE LAKE     DRIZZLE   34  32  93 CALM      29.76S
ORR            CLOUDY    34  30  86 CALM      29.71R FOG
COOK           CLOUDY    34  34 100 E5        29.73R FOG     WCI  30
WALKER         LGT SNOW  32  32  99 E6        29.66R WCI  26
$$
MNZ012-019>021-037-230300-
   Northeast Minnesota

CITY           SKY/WX    TMP DP  RH WIND       PRES   REMARKS
DULUTH         CLOUDY    35  32  88 E12       29.71S FOG     WCI  27
ELY            CLOUDY    34  32  93 CALM      29.74S FOG
HIBBING        MIX PCPN  35  32  88 SE8       29.71R FOG     WCI  29
EVELETH        CLOUDY    34  34 100 E3        29.73S FOG
DULUTH HARBOR  CLOUDY    36  34  93 NE13      29.75S
TWO HARBORS    CLOUDY    37  32  81 E6        29.73R HAZE
SILVER BAY     CLOUDY    36  34  93 NE6       29.74S FOG
GRAND MARAIS     N/A     37  34  89 E8        29.81S
G MARAIS ARPRT FOG       30  28  93 E3        29.77S VSB<1/4
$$
MNZ029>031-032-039>041-046>048-054>057-064-230300-
   West Central Minnesota

CITY           SKY/WX    TMP DP  RH WIND       PRES   REMARKS
FERGUS FALLS   LGT RAIN  34  34 100 E6        29.63R WCI  29
WHEATON        LGT SNOW  30  30 100 E10       29.61R WCI  21
MORRIS         MIX PCPN  34  32  93 E9        29.57R WCI  26
ALEXANDRIA     LGT SNOW  33  32  96 E12       29.60R FOG     WCI  24
ELBOW LAKE     LGT RAIN  33  32  97 E9        29.59R WCI  25
WADENA         LGT SNOW  32  32 100 E8        29.63R WCI  25
GLENWOOD       LGT SNOW  34  32  93 E12       29.59R WCI  25
APPLETON       LGT SNOW  36  34  93 E10       29.57R
BENSON         MIX PCPN  34  32  93 SE9       29.58R WCI  26
ORTONVILLE     DRIZZLE   34  32  93 E13       29.55R WCI  25
MADISON        LGT SNOW  37  36  93 E13       29.55R
WILLMAR        MIX PCPN  36  34  93 E10       29.58S
$$
MNZ033>034-036-042>043-049>051-058-059-230300-
   Central Minnesota

CITY           SKY/WX    TMP DP  RH WIND       PRES   REMARKS
ST CLOUD       CLOUDY    37  34  89 E8        29.62R FOG
SAUK CENTRE    LGT SNOW  32  32  99 E9        29.61R WCI  24
PAYNESVILLE    DRIZZLE   31  32 100 NE8       29.60R WCI  24
AITKIN         MIX PCPN  36  30  80 E5        29.66R
PINE RIVER     LGT SNOW  34  34 100 E8        29.70R WCI  27
BRAINERD       LGT SNOW  34  33  96 E6        29.66R FOG     WCI  29
STAPLES        LGT SNOW  32  32 100 E6        29.64R WCI  26
LONG PRAIRIE   LGT SNOW  32  32 100 NE8       29.62R WCI  25
LITTLE FALLS   LGT SNOW  32  32 100 E6        29.64R WCI  26
LITCHFIELD     DRIZZLE   36  36 100 E10       29.59S
BUFFALO        DRIZZLE   36  34  93 E9        29.62R
MAPLE LAKE     DRIZZLE   36  36  98 E10       29.61S
$$
MNZ037-044-045-052-053-230300-
   East Central Minnesota

CITY           SKY/WX    TMP DP  RH WIND       PRES   REMARKS
PRINCETON      RAIN      37  36  93 E8        29.64R
MORA           CLOUDY    32  32 100 E6        29.67S WCI  26
CAMBRIDGE      DRIZZLE   37  30  75 CALM      29.63S
RUSH CITY      CLOUDY    34  33  95 NE7       29.66S WCI  28
MOOSE LAKE     CLOUDY    34  32  93 NE3       29.68R FOG
HINCKLEY       CLOUDY    36  34  93 NE6       29.68R FOG
CLOQUET        CLOUDY    34  34 100 E7        29.70S FOG     WCI  28
MCGREGOR       CLOUDY    34  34 100 E8        29.69R WCI  27
$$
MNZ071>073-080-081-089-090-097-098-230300-
   Southwest Minnesota

CITY           SKY/WX    TMP DP  RH WIND       PRES   REMARKS
MONTEVIDEO     DRIZZLE   34  34 100 SE10      29.57R WCI  26
GRANITE FALLS  DRIZZLE   33  33  96 E7        29.57R WCI  27
CANBY          LGT RAIN  35  34  99 E14       29.54R WCI  25
MARSHALL       CLOUDY    34  30  86 E12       29.53R WCI  25
REDWOOD FALLS  LGT RAIN  35  34  96 E9        29.55R FOG     WCI  28
OLIVIA         DRIZZLE   34  32  93 E9G16     29.56R WCI  26
PIPESTONE      CLOUDY    36  36 100 SE9       29.47R FOG
WINDOM         LGT SNOW  34  34 100 E7        29.51S WCI  28
WORTHINGTON    CLOUDY    34 -15  12 E12       29.49S WCI  25
JACKSON        MIX PCPN  34  32  93 E8        29.51R WCI  27
TRACY          LGT RAIN  34  33  97 E9        29.52R WCI  27
SLAYTON        CLOUDY    33  33 100 E10       29.50R FOG     WCI  25
$$
MNZ065>067-074>077-082>085-091>093-230300-
   South Central Minnesota

CITY           SKY/WX    TMP DP  RH WIND       PRES   REMARKS
MANKATO        CLOUDY    36  30  80 E12       29.56R
NEW ULM        DRIZZLE   34  34 100 E9        29.56R WCI  26
FAIRMONT       CLOUDY    36  30  80 E9        29.52R
GLENCOE        DRIZZLE   36  36 100 E10       29.58S
FARIBAULT      DRIZZLE   36  34  93 E8        29.58S
OWATONNA       DRIZZLE   36  34  93 E9        29.56S
WASECA         LGT RAIN  34  32  93 E12G17    29.57S WCI  25
ALBERT LEA     MIX PCPN  34  34 100 E12       29.53S WCI  25
$$
MNZ078>079-086>088-094>096-230300-
   Southeast Minnesota

CITY           SKY/WX    TMP DP  RH WIND       PRES   REMARKS
ROCHESTER      CLOUDY    34  32  92 E12       29.57S FOG     WCI  25
RED WING       DRIZZLE   37  36  93 E9        29.61S
STANTON        LGT RAIN  37  34  89 E9        29.58S
DODGE CENTER   MIX PCPN  34  34 100 E13       29.56S WCI  25
WINONA         CLOUDY    36  34  93 SE7       29.62F FOG
AUSTIN         CLOUDY    34  34 100 E15       29.55S FOG     WCI  24
PRESTON        CLOUDY    32  32  99 E12       29.57S FOG     WCI  23
$$
ABBREVIATIONS USED IN REMARKS
   TC - TEMPERATURES IN CELSIUS
  WCI - WIND CHILL INDEX
   HX - HEAT INDEX
  VSB - VISIBILITY
$$


USA.gov is the U.S. government's official web portal to all federal, state and local government web resources and services.